Meteopurmerend
purmerend
Purmerend - Baaienwijk



My webcam  My webcam


waarschuwing voor Onweer Meer informatie blitzortung!


Regen radar Meer informatie rain snow radar


Bezoek onze andere website:

CandyAppleRed WebdesignWebdesign Purmerend Candy Apple Red

MeteopurmerendBlog

Template documentation
and downloads



Onweer van: 26-07-2021 13:00 tot: 21:00 waarschuwing voor: Onweer niveau: Geel info button
Enkele onweersbuien, lokaal met hagel en veel neerslag in korte tijd.Kans op blikseminslag, hagel en veel neerslag in korte tijd.Verkeer en buitenactiviteiten kunnen hinder ondervinden.Mijd open water en open gebied, schuil niet onder bomen.Volg weerberichten en waarschuwingen.

15 daagse weersverwachting Apeldoorn (NL)

  • Overzicht
  • Per uur
  • 15 dagen
  • Extra
  • Vergelijk
  • Kaarten
  • Dagkaart
  • Meer »
  • Info
  • Statistieken
  • Directe link
    Temp 6h Neerslag Wind  
 05:51     21:36    Daglengte: 15:45 Vandaag
20:00
20°
0.2 mm
3
 05:52     21:34    Daglengte: 15:42 Morgen
02:00
17°
 
3
08:00
17°
 
3
14:00
22°
 
4
20:00
19°
 
4
 05:54     21:33    Daglengte: 15:39 Woensdag 28 Jul
02:00
17°
 
4
08:00
16°
 
4
14:00
19°
5.2 mm
7
20:00
18°
10.5 mm
4
 05:55     21:31    Daglengte: 15:36 Donderdag 29 Jul
02:00
15°
9.7 mm
5
08:00
15°
7.4 mm
7
Locatie info
Region: Gelderland
Latitude: 52.2165°N
Longitude: 5.9657°E
18 masl
Postcode: 7311 LW
Temp/Neerslag /Baro Onweer/Dauwpunt
    Temp Baro 1h Neerslag Dauwpunt Wind UV Bewolking  
 05:51     21:36    Daglengte: 15:45 Vandaag
16:00
22°
1009.1 hPa
48%
14.3°
4
Windvlaag: 6.9 m/s
38%
17:00
22°
1009.2 hPa
82%
14.4°
4
Windvlaag: 6.6 m/s
39%
18:00
21°
1009.2 hPa 0.2 mm
82%
13.4°
4
Windvlaag: 5.4 m/s
40%
19:00
20°
1009.1 hPa
81%
14.2°
4
Windvlaag: 5.5 m/s
53%
20:00
20°
1009.0 hPa
33%
14.0°
3
Windvlaag: 4.8 m/s
50%
21:00
19°
1009.4 hPa
74%
15.0°
3
Windvlaag: 5.8 m/s
74%
22:00
18°
1009.9 hPa
82%
15.3°
3
Windvlaag: 5.6 m/s
66%
23:00
17°
1010.1 hPa
17%
15.7°
3
Windvlaag: 5.2 m/s
56%
 05:52     21:34    Daglengte: 15:42 Morgen
00:00
17°
1010.2 hPa
16%
16.1°
3
Windvlaag: 5.6 m/s
62%
01:00
17°
1010.1 hPa
17%
16.1°
3
Windvlaag: 6 m/s
66%
02:00
17°
1010.4 hPa
25%
16.0°
3
Windvlaag: 6.1 m/s
68%
03:00
16°
1010.6 hPa
19%
15.2°
4
Windvlaag: 4.9 m/s
25%
04:00
16°
1010.5 hPa
14%
15.0°
3
Windvlaag: 4.2 m/s
18%
05:00
16°
1010.4 hPa
15%
15.1°
3
Windvlaag: 4.1 m/s
60%
06:00
16°
1010.3 hPa
14%
15.4°
3
Windvlaag: 4.2 m/s
53%
07:00
16°
1010.7 hPa
14%
15.4°
3
Windvlaag: 5.1 m/s
60%
08:00
17°
1010.7 hPa
14%
15.5°
3
Windvlaag: 5.2 m/s
65%
09:00
17°
1010.8 hPa
14%
15.4°
3
Windvlaag: 6.2 m/s
80%
10:00
19°
1010.9 hPa
14%
15.0°
4
Windvlaag: 6.3 m/s
55%
11:00
20°
1010.8 hPa
14%
15.1°
4
Windvlaag: 6.3 m/s
67%
12:00
21°
1010.7 hPa
14%
15.2°
4
Windvlaag: 6.8 m/s
72%
13:00
22°
1010.3 hPa
14%
15.3°
4
Windvlaag: 6.8 m/s
82%
14:00
22°
1009.9 hPa
14%
16.6°
4
Windvlaag: 6.4 m/s
61%
15:00
22°
1009.6 hPa
23%
18.3°
4
Windvlaag: 6 m/s
37%
16:00
22°
1009.5 hPa
82%
18.0°
4
Windvlaag: 7 m/s
64%
17:00
22°
1009.5 hPa
81%
16.3°
4
Windvlaag: 7.3 m/s
82%
18:00
20°
1009.3 hPa
82%
15.7°
4
Windvlaag: 6.2 m/s
59%
19:00
19°
1009.3 hPa
82%
16.2°
3
Windvlaag: 6.2 m/s
61%
20:00
19°
1009.2 hPa
82%
16.3°
4
Windvlaag: 6.8 m/s
85%
21:00
18°
1009.3 hPa
82%
16.2°
3
Windvlaag: 6 m/s
63%
22:00
18°
1009.6 hPa
82%
16.2°
3
Windvlaag: 6.3 m/s
63%
23:00
17°
1009.6 hPa
81%
16.3°
3
Windvlaag: 7 m/s
59%
 05:54     21:33    Daglengte: 15:39 Woensdag 28 Jul
00:00
17°
1009.3 hPa
27%
15.8°
3
Windvlaag: 6.2 m/s
63%
01:00
17°
1009.1 hPa
22%
15.3°
4
Windvlaag: 7.1 m/s
59%
02:00
17°
1008.9 hPa
16%
15.3°
4
Windvlaag: 7.6 m/s
66%
03:00
16°
1008.6 hPa
27%
15.3°
4
Windvlaag: 7.9 m/s
65%
04:00
16°
1008.3 hPa
82%
14.9°
4
Windvlaag: 7.9 m/s
62%
05:00
16°
1008.1 hPa
82%
14.9°
4
Windvlaag: 9 m/s
66%
06:00
16°
1008.0 hPa
28%
14.7°
4
Windvlaag: 9 m/s
64%
07:00
16°
1008.2 hPa
22%
14.7°
4
Windvlaag: 8.7 m/s
63%
08:00
16°
1008.2 hPa
19%
14.6°
4
Windvlaag: 9.5 m/s
61%
09:00
17°
1008.2 hPa
19%
15.0°
5
Windvlaag: 9.6 m/s
53%
10:00
17°
1008.1 hPa
73%
14.4°
5
Windvlaag: 9.7 m/s
72%
11:00
18°
1007.6 hPa 1.2 mm
100%
11.8°
6
Windvlaag: 10.7 m/s
67%
12:00
19°
1007.5 hPa 1.3 mm
100%
12.5°
6
Windvlaag: 10.5 m/s
59%
13:00
20°
1007.4 hPa 1.2 mm
100%
13.5°
6
Windvlaag: 10.4 m/s
56%
14:00
19°
1007.6 hPa 1.5 mm
100%
13.6°
7
Windvlaag: 10.1 m/s
53%
15:00
20°
1007.7 hPa 1.4 mm
100%
12.4°
7
Windvlaag: 9.7 m/s
71%
16:00
19°
1008.0 hPa 1.3 mm
100%
13.3°
6
Windvlaag: 9.1 m/s
61%
17:00
19°
1008.1 hPa 1.5 mm
100%
14.2°
5
Windvlaag: 7.6 m/s
65%
18:00
19°
1008.0 hPa 1.2 mm
100%
13.2°
5
Windvlaag: 6.9 m/s
69%
19:00
19°
1008.0 hPa 2.4 mm
100%
14.2°
5
Windvlaag: 7.3 m/s
87%
20:00
18°
1008.0 hPa 2.7 mm
97%
14.2°
4
Windvlaag: 6.7 m/s
72%
21:00
17°
1008.1 hPa 2.3 mm
97%
14.8°
4
Windvlaag: 7.7 m/s
50%
22:00
16°
1008.1 hPa
96%
13.7°
3
Windvlaag: 7.7 m/s
9%
23:00
16°
1007.7 hPa 2.5 mm
82%
12.6°
4
Windvlaag: 8.4 m/s
49%
 05:55     21:31    Daglengte: 15:36 Donderdag 29 Jul
00:00
16°
1007.4 hPa 2.6 mm
26%
11.5°
5
Windvlaag: 9.6 m/s
70%
01:00
16°
1007.3 hPa 2.3 mm
21%
12.0°
5
Windvlaag: 10.5 m/s
60%
02:00
15°
1006.8 hPa
30%
11.4°
5
Windvlaag: 10.1 m/s
61%
03:00
15°
1006.4 hPa
29%
11.4°
5
Windvlaag: 10 m/s
36%
04:00
14°
1006.2 hPa
31%
11.6°
6
Windvlaag: 10.9 m/s
48%
05:00
14°
1006.1 hPa 2.3 mm
39%
12.2°
6
Windvlaag: 11.5 m/s
60%
06:00
14°
1006.2 hPa 2.5 mm
50%
12.3°
6
Windvlaag: 11.2 m/s
40%
07:00
14°
1006.3 hPa 2.6 mm
22%
12.1°
7
Windvlaag: 11.2 m/s
39%
08:00
15°
1006.5 hPa
22%
11.8°
7
Windvlaag: 11.2 m/s
18%
09:00
16°
1008.2 hPa
29%
11.7°
6
Windvlaag: 13.8 m/s
17%
10:00
16°
1008.4 hPa
29%
11.0°
6
Windvlaag: 13.4 m/s
55%
11:00
17°
1008.7 hPa
23%
10.6°
6
Windvlaag: 13.3 m/s
20%
12:00
18°
1008.9 hPa
21%
10.3°
6
Windvlaag: 13.7 m/s
59%
13:00
19°
1009.1 hPa
21%
10.4°
6
Windvlaag: 13.5 m/s
42%
14:00
20°
1008.9 hPa
21%
10.6°
6
Windvlaag: 14.6 m/s
19%
Temp/Neerslag /Baro Onweer/Dauwpunt
    Temp Baro Neerslag Dauwpunt Wind Bewolking  
 05:51     21:36    Daglengte: 15:45 Vandaag
17:00
22°
1009.2 hPa   14.4°
4
39%
20:00
20°
1009.0 hPa 0.2 mm 14.0°
3
50%
23:00
17°
1010.1 hPa   15.7°
3
56%
 05:52     21:34    Daglengte: 15:42 Morgen
02:00
17°
1010.4 hPa   16.0°
3
68%
05:00
16°
1010.4 hPa   15.1°
3
60%
08:00
17°
1010.7 hPa   15.5°
3
65%
11:00
20°
1010.8 hPa   15.1°
4
67%
14:00
22°
1009.9 hPa   16.6°
4
61%
17:00
22°
1009.5 hPa   16.3°
4
82%
20:00
19°
1009.2 hPa   16.3°
4
85%
23:00
17°
1009.6 hPa   16.3°
3
59%
 05:54     21:33    Daglengte: 15:39 Woensdag 28 Jul
02:00
17°
1008.9 hPa   15.3°
4
66%
05:00
16°
1008.1 hPa   14.9°
4
66%
08:00
16°
1008.2 hPa   14.6°
4
61%
11:00
18°
1007.6 hPa 1.2 mm 11.8°
6
67%
14:00
19°
1007.6 hPa 4.0 mm 13.6°
7
53%
17:00
19°
1008.1 hPa 4.2 mm 14.2°
5
65%
20:00
18°
1008.0 hPa 6.3 mm 14.2°
4
72%
23:00
16°
1007.7 hPa 4.8 mm 12.6°
4
49%
 05:55     21:31    Daglengte: 15:36 Donderdag 29 Jul
02:00
15°
1006.8 hPa 4.9 mm 11.4°
5
61%
05:00
14°
1006.1 hPa 2.3 mm 12.2°
6
60%
08:00
15°
1006.5 hPa 5.1 mm 11.8°
7
18%
11:00
17°
1008.7 hPa   10.6°
6
20%
14:00
20°
1008.9 hPa   10.6°
6
19%
17:00
20°
1009.7 hPa 13.6 mm 11.2°
8
1%
20:00
18°
1009.6 hPa 13.6 mm 11.7°
7
0%
23:00
15°
1010.1 hPa 13.6 mm 10.7°
6
0%
 05:57     21:29    Daglengte: 15:32 Vrijdag 30 Jul
02:00
14°
1010.1 hPa 13.6 mm 10.8°
6
0%
05:00
13°
1010.1 hPa 13.6 mm 11.2°
5
0%
08:00
14°
1010.4 hPa 13.6 mm 12.1°
5
0%
11:00
19°
1010.4 hPa 13.6 mm 12.5°
6
1%
14:00
21°
1009.6 hPa 13.7 mm 12.0°
5
1%
17:00
21°
1009.1 hPa 13.7 mm 12.8°
4
1%
20:00
19°
1008.2 hPa 13.7 mm 13.4°
1
1%
23:00
17°
1007.9 hPa 14.0 mm 13.4°
0
1%
 05:58     21:28    Daglengte: 15:30 Zaterdag 31 Jul
02:00
15°
1006.9 hPa 14.8 mm 13.8°
2
1%
05:00
14°
1005.8 hPa 14.8 mm 13.4°
3
0%
08:00
15°
1005.8 hPa 14.8 mm 13.1°
4
0%
11:00
19°
1004.6 hPa 15.0 mm 11.9°
7
0%
14:00
16°
1003.8 hPa 17.9 mm 13.6°
7
0%
17:00
16°
1001.6 hPa 19.9 mm 14.4°
7
1%
20:00
16°
1004.4 hPa 21.1 mm 13.8°
6
1%
23:00
13°
1006.8 hPa 21.1 mm 12.3°
4
0%
 06:00     21:26    Daglengte: 15:26 Zondag 01 Aug
02:00
12°
1006.9 hPa 21.1 mm 11.8°
3
0%
05:00
13°
1006.5 hPa 21.1 mm 12.1°
2
1%
08:00
13°
1006.5 hPa 21.3 mm 12.7°
2
1%
11:00
15°
1006.6 hPa 22.0 mm 13.3°
2
1%
14:00
15°
1007.2 hPa 22.6 mm 13.1°
2
1%
17:00
15°
1007.9 hPa 25.5 mm 13.0°
4
1%
20:00
15°
1009.1 hPa 27.2 mm 12.4°
4
1%
23:00
11°
1011.1 hPa 27.4 mm 10.1°
3
1%
 06:01     21:24    Daglengte: 15:23 Maandag 02 Aug
02:00
10°
1012.4 hPa 27.4 mm 9.7°
3
0%
05:00
10°
Voelt als: 8.0°
1012.8 hPa 27.4 mm 9.0°
3
0%
08:00
12°
1013.8 hPa 27.4 mm 10.6°
4
0%
11:00
16°
1015.0 hPa 28.2 mm 10.9°
4
1%
14:00
18°
1015.0 hPa 56.5 mm 8.6°
5
1%
20:00
16°
1015.3 hPa 56.6 mm 11.1°
2
1%
 06:03     21:23    Daglengte: 15:20 Dinsdag 03 Aug
02:00
11°
1015.6 hPa 56.6 mm 8.8°
2
0%
08:00
14°
1015.1 hPa 56.6 mm 10.4°
3
1%
14:00
21°
1014.4 hPa 56.7 mm 11.0°
6
1%
20:00
19°
1013.7 hPa 57.1 mm 13.2°
3
1%
 06:04     21:21    Daglengte: 15:17 Woensdag 04 Aug
02:00
16°
1012.6 hPa 57.2 mm 11.5°
5
1%
08:00
16°
1010.8 hPa 57.2 mm 11.8°
6
1%
14:00
22°
1008.9 hPa 57.4 mm 13.6°
8
1%
20:00
18°
1008.2 hPa 61.8 mm 14.1°
5
1%
 06:06     21:19    Daglengte: 15:13 Donderdag 05 Aug
02:00
14°
1008.4 hPa 62.7 mm 12.3°
5
0%
08:00
15°
1007.6 hPa 62.7 mm 12.8°
5
1%
14:00
19°
1010.1 hPa 1.2 mm 13.5°
3
76%
20:00
18°
1008.9 hPa 2.4 mm 14.2°
1
81%
 06:08     21:17    Daglengte: 15:09 Vrijdag 06 Aug
02:00
14°
1008.2 hPa 0.9 mm 12.0°
2
70%
08:00
14°
1007.5 hPa 0.5 mm 12.7°
2
62%
14:00
19°
1007.7 hPa 1.6 mm 13.4°
3
62%
20:00
17°
1007.1 hPa 2.1 mm 13.5°
2
67%
 06:09     21:15    Daglengte: 15:06 Zaterdag 07 Aug
02:00
13°
1007.2 hPa 0.6 mm 11.7°
2
55%
08:00
14°
1007.0 hPa 0.8 mm 12.3°
3
61%
14:00
19°
1007.5 hPa 1.9 mm 13.2°
5
73%
20:00
17°
1008.1 hPa 2.8 mm 13.4°
3
69%
 06:11     21:13    Daglengte: 15:02 Zondag 08 Aug
02:00
13°
1009.2 hPa 0.7 mm 11.8°
3
62%
08:00
14°
1009.2 hPa 0.3 mm 12.2°
4
65%
14:00
18°
1010.2 hPa 2.1 mm 13.4°
5
69%
20:00
17°
1011.0 hPa 1.7 mm 13.0°
3
67%
 06:12     21:12    Daglengte: 15:00 Maandag 09 Aug
02:00
13°
1012.0 hPa 0.5 mm 11.6°
3
68%
08:00
14°
1012.3 hPa 0.5 mm 12.0°
4
68%
14:00
19°
1013.4 hPa 1.7 mm 12.8°
5
65%
20:00
17°
1014.0 hPa 0.1 mm 12.6°
3
68%
 06:14     21:10    Daglengte: 14:56 Dinsdag 10 Aug
02:00
13°
1014.9 hPa 0.6 mm 10.8°
2
59%
08:00
14°
1014.8 hPa 0.6 mm 11.9°
3
52%
14:00
20°
1015.7 hPa 0.9 mm 13.2°
4
53%
  CAPE Lifted Index Hail Supercell Tornado SRH 3km CL BTM PRES CL TOP PRES Swiss DWD icon SMHI TS
 05:51     21:36    Daglengte: 15:45 Vandaag
16:00 713 J/kg -2.5 K 0 % 0 % 0 % 0 m²/s² 0 0 -1.75 3
17:00 712 J/kg -2.6 K 0 % 0 % 0 % 0 m²/s² 0 0 -1.76 3
18:00 785 J/kg -2.8 K 0 % 0 % 0 % 0 m²/s² 0 0 -1.21 3
19:00 721 J/kg -2.8 K 0 % 0 % 0 % 0 m²/s² 0 0 -1.15 3
20:00 686 J/kg -2.6 K 0 % 0 % 0 % 0 m²/s² 0 0 -1.4 3
21:00 745 J/kg -2.6 K 0 % 0 % 0 % 0 m²/s² 0 0 -1.7 3
22:00 690 J/kg -2.9 K 0 % 0 % 0 % 0 m²/s² 0 0 -2.39 3
23:00 635 J/kg -2.4 K 0 % 0 % 0 % 0 m²/s² 0 0 -1.83 3
 05:52     21:34    Daglengte: 15:42 Morgen
00:00 419 J/kg -1.8 K 0 % 0 % 0 % 0 m²/s² 0 0 -0.57 3
01:00 246 J/kg -1.4 K 0 % 0 % 0 % 0 m²/s² 0 0 0.4 3
02:00 35 J/kg -0.7 K 0 % 0 % 0 % 0 m²/s² 0 0 0.71 3
03:00 2 J/kg -0.1 K 0 % 0 % 0 % 0 m²/s² 0 0 0.65 3
04:00 1 J/kg 1.1 K 0 % 0 % 0 % 0 m²/s² 0 0 2.24 3
05:00 2 J/kg 1.3 K 0 % 0 % 0 % 0 m²/s² 0 0 3.22 3
06:00 1 J/kg 0.7 K 0 % 0 % 0 % 0 m²/s² 0 0 2.89 3
07:00 1 J/kg -0.3 K 0 % 0 % 0 % 0 m²/s² 0 0 2.1 3
08:00 1 J/kg -0.5 K 0 % 0 % 0 % 0 m²/s² 0 0 1.96 3
09:00 97 J/kg -1.0 K 0 % 0 % 0 % 0 m²/s² 0 0 1.34 3
10:00 376 J/kg -2.3 K 0 % 0 % 0 % 0 m²/s² 0 0 0.16 3
11:00 410 J/kg -2.1 K 0 % 0 % 0 % 0 m²/s² 0 0 0.36 3
12:00 283 J/kg -1.6 K 0 % 0 % 0 % 0 m²/s² 0 0 1.34 3
13:00 659 J/kg -2.8 K 0 % 0 % 0 % 0 m²/s² 0 0 -1.24 3
14:00 560 J/kg -2.5 K 0 % 0 % 0 % 0 m²/s² 0 0 -1.06 3
15:00 469 J/kg -2.1 K 0 % 0 % 0 % 0 m²/s² 0 0 -0.66 3
16:00 611 J/kg -2.4 K 0 % 0 % 0 % 0 m²/s² 0 0 -1.11 3
17:00 840 J/kg -2.9 K 0 % 0 % 0 % 0 m²/s² 0 0 -2.12 3
18:00 838 J/kg -3.2 K 0 % 0 % 0 % 0 m²/s² 0 0 -2.21 80
19:00 90 J/kg 0.0 K 0 % 0 % 0 % 0 m²/s² 0 0 0.39 61
20:00 142 J/kg -0.5 K 0 % 0 % 0 % 0 m²/s² 0 0 0.19 80
21:00 101 J/kg 0.3 K 0 % 0 % 0 % 0 m²/s² 0 0 0.63 3
22:00 100 J/kg 0.5 K 0 % 0 % 0 % 0 m²/s² 0 0 0.68 80
23:00 67 J/kg 0.4 K 0 % 0 % 0 % 0 m²/s² 0 0 0.58 3
 05:54     21:33    Daglengte: 15:39 Woensdag 28 Jul
00:00 5 J/kg 0.2 K 0 % 0 % 0 % 0 m²/s² 0 0 0.62 3
01:00 18 J/kg 0.4 K 0 % 0 % 0 % 0 m²/s² 0 0 0.88 3
02:00 24 J/kg 0.5 K 0 % 0 % 0 % 0 m²/s² 0 0 1.1 3
03:00 18 J/kg -0.1 K 0 % 0 % 0 % 0 m²/s² 0 0 0.23 3
04:00 19 J/kg -0.1 K 0 % 0 % 0 % 0 m²/s² 0 0 0.98 3
05:00 8 J/kg 0.5 K 0 % 0 % 0 % 0 m²/s² 0 0 2.3 61
06:00 0 J/kg 1.0 K 0 % 0 % 0 % 0 m²/s² 0 0 2.92 3
07:00 0 J/kg 1.7 K 0 % 0 % 0 % 0 m²/s² 0 0 3.38 3
08:00 17 J/kg 0.6 K 0 % 0 % 0 % 0 m²/s² 0 0 2.4 3
09:00 15 J/kg 1.2 K 0 % 0 % 0 % 0 m²/s² 0 0 3.6 3
10:00 0 J/kg 2.2 K 0 % 0 % 0 % 0 m²/s² 0 0 4.9 3
11:00 3 J/kg 2.7 K 0 % 0 % 0 % 0 m²/s² 0 0 5.4 3
12:00 34 J/kg 1.5 K 0 % 0 % 0 % 0 m²/s² 0 0 4.53 3
13:00 81 J/kg 0.5 K 0 % 0 % 0 % 0 m²/s² 0 0 3.77 3
14:00 97 J/kg 0.4 K 0 % 0 % 0 % 0 m²/s² 0 0 2.74 80
15:00 248 J/kg -0.5 K 0 % 0 % 0 % 0 m²/s² 0 0 1.57 80
16:00 363 J/kg -1.3 K 0 % 0 % 0 % 0 m²/s² 0 0 -1.21 80
17:00 640 J/kg -2.1 K 0 % 0 % 0 % 0 m²/s² 0 0 -0.24 80
18:00 605 J/kg -2.4 K 0 % 0 % 0 % 0 m²/s² 0 0 -0.6 3
19:00 603 J/kg -2.5 K 0 % 0 % 0 % 0 m²/s² 0 0 -1.12 3
20:00 395 J/kg -1.4 K 0 % 0 % 0 % 0 m²/s² 0 0 1.27 3
21:00 529 J/kg -1.7 K 0 % 0 % 0 % 0 m²/s² 0 0 0.97 80
22:00 397 J/kg -0.3 K 0 % 0 % 0 % 0 m²/s² 0 0 3.99 2
23:00 226 J/kg 1.7 K 0 % 0 % 0 % 0 m²/s² 0 0 2.33 2
 05:55     21:31    Daglengte: 15:36 Donderdag 29 Jul
00:00 14 J/kg 4.6 K 0 % 0 % 0 % 0 m²/s² 0 0 5.23 2
01:00 18 J/kg 4.7 K 0 % 0 % 0 % 0 m²/s² 0 0 5.03 2
02:00 0 J/kg 7.0 K 0 % 0 % 0 % 0 m²/s² 0 0 8.53 2
03:00 0 J/kg 7.2 K 0 % 0 % 0 % 0 m²/s² 0 0 8.97 2
04:00 0 J/kg 6.4 K 0 % 0 % 0 % 0 m²/s² 0 0 8.89 3
05:00 14 J/kg 6.7 K 0 % 0 % 0 % 0 m²/s² 0 0 10.96 3
06:00 44 J/kg 7.0 K 0 % 0 % 0 % 0 m²/s² 0 0 11.71 2
07:00 114 J/kg 7.1 K 0 % 0 % 0 % 0 m²/s² 0 0 11.21 2
08:00 172 J/kg 6.9 K 0 % 0 % 0 % 0 m²/s² 0 0 10.41 2
09:00 220 J/kg 6.5 K 0 % 0 % 0 % 0 m²/s² 0 0 10.07 2
10:00 246 J/kg 6.0 K 0 % 0 % 0 % 0 m²/s² 0 0 8.73 2
11:00 263 J/kg 4.8 K 0 % 0 % 0 % 0 m²/s² 0 0 7.62 2
12:00 253 J/kg 4.1 K 0 % 0 % 0 % 0 m²/s² 0 0 6.53 2
13:00 232 J/kg 4.3 K 0 % 0 % 0 % 0 m²/s² 0 0 5.98 2
14:00 218 J/kg 2.5 K 0 % 0 % 0 % 0 m²/s² 0 0 4.87 2
Temp Baro Wind Neerslag
  EWN Forecast EWN WRFDA DWD ICON FMI HIRLAM MET Norway GFS
 05:51     21:36    Daglengte: 15:45 Vandaag
17:00 21.6° 1009.2 hPa 4.1 m/s 0.0 mm 22.6° 1008.8 hPa 3.9 m/s 0.4 mm 21.5° 1009.4 hPa 3.6 m/s -0.6 mm 22.9° 1008.6 hPa 5.3 m/s 0.0 mm 21.1° 1009.4 hPa 4.8 m/s
20:00 19.8° 1009.0 hPa 3.1 m/s 0.2 mm 22.5° 1008.5 hPa 3.5 m/s 0.9 mm 19.3° 1009.0 hPa 2.7 m/s 0.3 mm 21.2° 1008.7 hPa 3.0 m/s 0.0 mm 19.6° 1009.1 hPa 4.0 m/s
23:00 17.4° 1010.1 hPa 3.0 m/s 0.0 mm 18.5° 1009.9 hPa 1.7 m/s 1.7 mm 17.1° 1010.2 hPa 2.4 m/s 0.2 mm 18.7° 1009.4 hPa 3.1 m/s 0.0 mm 16.3° 1009.4 hPa 2.3 m/s
 05:52     21:34    Daglengte: 15:42 Morgen
02:00 16.6° 1010.4 hPa 3.2 m/s 0.0 mm 15.6° 1009.2 hPa 3.0 m/s 2.5 mm 16.7° 1010.7 hPa 3.1 m/s 0.0 mm 16.8° 1009.2 hPa 2.6 m/s 0.0 mm 15.1° 1010.6 hPa 2.8 m/s
05:00 15.9° 1010.4 hPa 2.7 m/s 0.0 mm 14.6° 1009.5 hPa 2.1 m/s 2.5 mm 15.7° 1011.0 hPa 2.9 m/s 0.0 mm 16.0° 1009.2 hPa 2.1 m/s 0.0 mm 13.9° 1010.2 hPa 2.5 m/s
08:00 16.6° 1010.7 hPa 2.9 m/s 0.0 mm 15.3° 1009.7 hPa 2.4 m/s 2.6 mm 16.7° 1011.4 hPa 3.6 m/s 0.0 mm 16.6° 1009.6 hPa 2.7 m/s 0.0 mm 15.7° 1010.7 hPa 3.2 m/s
11:00 19.5° 1010.8 hPa 3.7 m/s 0.0 mm 21.3° 1009.5 hPa 4.7 m/s 2.6 mm 19.8° 1011.2 hPa 3.5 m/s 0.0 mm 19.4° 1010.1 hPa 3.6 m/s 0.0 mm 19.3° 1010.5 hPa 4.4 m/s
14:00 22.3° 1009.9 hPa 3.9 m/s 0.0 mm 21.6° 1010.0 hPa 4.1 m/s 3.3 mm 22.4° 1010.6 hPa 4.0 m/s 0.0 mm 23.0° 1008.9 hPa 3.8 m/s 0.0 mm 22.5° 1010.0 hPa 5.2 m/s
17:00 21.7° 1009.5 hPa 3.9 m/s 0.0 mm 22.4° 1008.6 hPa 3.1 m/s 5.2 mm 21.7° 1010.0 hPa 4.1 m/s 0.1 mm 23.0° 1008.2 hPa 3.3 m/s 0.0 mm 20.7° 1009.8 hPa 4.1 m/s
20:00 18.6° 1009.2 hPa 3.9 m/s 0.0 mm 19.0° 1008.5 hPa 5.0 m/s 10.0 mm 18.2° 1010.1 hPa 2.8 m/s 1.1 mm 19.6° 1007.6 hPa 4.1 m/s 0.0 mm 19.6° 1009.3 hPa 3.4 m/s
23:00 17.2° 1009.6 hPa 2.6 m/s 0.0 mm 17.4° 1009.4 hPa 2.6 m/s 10.2 mm 17.0° 1009.9 hPa 2.6 m/s 0.5 mm 18.0° 1008.3 hPa 1.4 m/s 0.0 mm 16.7° 1009.5 hPa 3.1 m/s
 05:54     21:33    Daglengte: 15:39 Woensdag 28 Jul
02:00 16.5° 1008.9 hPa 3.5 m/s 0.0 mm 14.6° 1008.1 hPa 2.7 m/s 10.4 mm 16.6° 1008.8 hPa 2.9 m/s 0.0 mm 17.0° 1009.2 hPa 3.5 m/s 0.0 mm 15.7° 1009.4 hPa 3.3 m/s
05:00 15.8° 1008.1 hPa 3.7 m/s 0.0 mm 14.3° 1007.5 hPa 3.2 m/s 10.4 mm 16.0° 1008.1 hPa 2.8 m/s 0.3 mm 15.1° 1009.1 hPa 3.5 m/s 0.0 mm 15.0° 1008.7 hPa 4.4 m/s
08:00 16.2° 1008.2 hPa 4.3 m/s 0.0 mm 16.5° 1007.8 hPa 4.6 m/s 10.4 mm 16.3° 1007.2 hPa 4.0 m/s 0.0 mm 15.4° 1009.3 hPa 3.6 m/s 0.0 mm 15.3° 1008.9 hPa 5.6 m/s
11:00 18.1° 1007.6 hPa 6.3 m/s 1.2 mm 19.1° 1007.6 hPa 6.9 m/s 10.4 mm 17.2° 1007.4 hPa 5.1 m/s 0.1 mm 19.0° 1008.6 hPa 7.2 m/s
14:00 19.1° 1007.6 hPa 6.6 m/s 4.0 mm 19.6° 1007.7 hPa 7.2 m/s 10.4 mm 19.0° 1007.4 hPa 5.7 m/s 0.8 mm 18.9° 1009.0 hPa 6.8 m/s
17:00 18.9° 1008.1 hPa 5.5 m/s 4.2 mm 20.8° 1007.2 hPa 6.2 m/s 12.7 mm 17.9° 1008.4 hPa 5.1 m/s 2.0 mm 20.4° 1008.7 hPa 7.4 m/s
20:00 17.6° 1008.0 hPa 4.4 m/s 6.3 mm 18.8° 1007.3 hPa 4.0 m/s 18.4 mm 16.7° 1008.1 hPa 4.5 m/s 0.2 mm 17.7° 1008.3 hPa 4.9 m/s
23:00 16.2° 1007.7 hPa 3.9 m/s 4.8 mm 17.6° 1007.2 hPa 3.8 m/s 19.8 mm 15.5° 1007.7 hPa 2.9 m/s 0.3 mm 15.5° 1007.7 hPa 5.7 m/s
 05:55     21:31    Daglengte: 15:36 Donderdag 29 Jul
02:00 15.3° 1006.8 hPa 5.5 m/s 4.9 mm 15.4° 1006.4 hPa 5.2 m/s 19.8 mm 14.8° 1007.1 hPa 5.0 m/s 0.0 mm 15.6° 1006.8 hPa 7.1 m/s
05:00 14.2° 1006.1 hPa 5.8 m/s 2.3 mm 13.4° 1005.9 hPa 5.6 m/s 19.9 mm 14.3° 1007.3 hPa 4.6 m/s 0.0 mm 13.4° 1007.0 hPa 6.9 m/s
08:00 14.8° 1006.5 hPa 7.1 m/s 5.1 mm 15.0° 1005.8 hPa 7.8 m/s 19.9 mm 14.9° 1008.2 hPa 5.0 m/s 0.0 mm 13.9° 1006.9 hPa 8.1 m/s
11:00 17.4° 1008.7 hPa 6.1 m/s 0.0 mm 17.8° 1005.9 hPa 9.0 m/s 19.9 mm 17.3° 1009.4 hPa 5.4 m/s 0.0 mm 15.4° 1008.6 hPa 7.7 m/s
14:00 19.9° 1008.9 hPa 6.1 m/s 0.0 mm 19.7° 1006.1 hPa 9.4 m/s 20.0 mm 19.9° 1009.6 hPa 5.3 m/s 0.0 mm 19.9° 1009.4 hPa 8.4 m/s
17:00 20.4° 1009.7 hPa 8.2 m/s 13.6 mm 20.4° 1009.7 hPa 8.2 m/s 13.6 mm
20:00 18.0° 1009.6 hPa 6.8 m/s 13.6 mm 18.0° 1009.6 hPa 6.8 m/s 13.6 mm
23:00 15.4° 1010.1 hPa 5.8 m/s 13.6 mm 15.4° 1010.1 hPa 5.8 m/s 13.6 mm
 05:57     21:29    Daglengte: 15:32 Vrijdag 30 Jul
02:00 14.2° 1010.1 hPa 5.6 m/s 13.6 mm 14.2° 1010.1 hPa 5.6 m/s 13.6 mm
05:00 12.5° 1010.1 hPa 4.6 m/s 13.6 mm 12.5° 1010.1 hPa 4.6 m/s 13.6 mm
08:00 14.2° 1010.4 hPa 5.0 m/s 13.6 mm 14.2° 1010.4 hPa 5.0 m/s 13.6 mm
11:00 19.1° 1010.4 hPa 5.5 m/s 13.6 mm 19.1° 1010.4 hPa 5.5 m/s 13.6 mm
14:00 21.4° 1009.6 hPa 5.1 m/s 13.7 mm 21.4° 1009.6 hPa 5.1 m/s 13.7 mm
17:00 20.8° 1009.1 hPa 4.2 m/s 13.7 mm 20.8° 1009.1 hPa 4.2 m/s 13.7 mm
20:00 18.9° 1008.2 hPa 1.0 m/s 13.7 mm 18.9° 1008.2 hPa 1.0 m/s 13.7 mm
23:00 16.7° 1007.9 hPa 0.3 m/s 14.0 mm 16.7° 1007.9 hPa 0.3 m/s 14.0 mm
 05:58     21:28    Daglengte: 15:30 Zaterdag 31 Jul
02:00 15.0° 1006.9 hPa 2.0 m/s 14.8 mm 15.0° 1006.9 hPa 2.0 m/s 14.8 mm
05:00 13.9° 1005.8 hPa 3.4 m/s 14.8 mm 13.9° 1005.8 hPa 3.3 m/s 14.8 mm
08:00 14.7° 1005.8 hPa 3.7 m/s 14.8 mm 14.7° 1005.8 hPa 3.7 m/s 14.8 mm
11:00 18.8° 1004.6 hPa 7.0 m/s 15.0 mm 18.8° 1004.6 hPa 7.0 m/s 15.0 mm
14:00 15.5° 1003.8 hPa 6.7 m/s 17.9 mm 15.5° 1003.8 hPa 6.7 m/s 17.9 mm
17:00 16.4° 1001.6 hPa 7.3 m/s 19.9 mm 16.4° 1001.6 hPa 7.3 m/s 19.9 mm
20:00 16.1° 1004.4 hPa 5.8 m/s 21.1 mm 16.1° 1004.4 hPa 5.8 m/s 21.1 mm
23:00 13.1° 1006.8 hPa 3.8 m/s 21.1 mm 13.1° 1006.8 hPa 3.8 m/s 21.1 mm
 06:00     21:26    Daglengte: 15:26 Zondag 01 Aug
02:00 12.3° 1006.9 hPa 3.4 m/s 21.1 mm 12.3° 1006.9 hPa 3.4 m/s 21.1 mm
05:00 12.6° 1006.5 hPa 2.4 m/s 21.1 mm 12.6° 1006.5 hPa 2.4 m/s 21.1 mm
08:00 13.3° 1006.5 hPa 1.9 m/s 21.3 mm 13.3° 1006.5 hPa 1.9 m/s 21.3 mm
11:00 14.6° 1006.6 hPa 1.7 m/s 22.0 mm 14.6° 1006.6 hPa 1.7 m/s 22.0 mm
14:00 15.0° 1007.2 hPa 2.0 m/s 22.6 mm 15.0° 1007.2 hPa 2.0 m/s 22.6 mm
17:00 15.1° 1007.9 hPa 3.7 m/s 25.5 mm 15.1° 1007.9 hPa 3.7 m/s 25.5 mm
20:00 14.9° 1009.1 hPa 3.7 m/s 27.2 mm 14.9° 1009.1 hPa 3.7 m/s 27.2 mm
23:00 11.3° 1011.1 hPa 2.9 m/s 27.4 mm 11.3° 1011.1 hPa 2.9 m/s 27.4 mm
 06:01     21:24    Daglengte: 15:23 Maandag 02 Aug
02:00 10.5° 1012.4 hPa 3.2 m/s 27.4 mm 10.5° 1012.4 hPa 3.2 m/s 27.4 mm
05:00 9.8° 1012.8 hPa 3.3 m/s 27.4 mm 9.8° 1012.8 hPa 3.3 m/s 27.4 mm
08:00 12.2° 1013.8 hPa 3.6 m/s 27.4 mm 12.2° 1013.8 hPa 3.6 m/s 27.4 mm
11:00 15.7° 1015.0 hPa 4.5 m/s 28.2 mm 15.7° 1015.0 hPa 4.5 m/s 28.2 mm
14:00 18.3° 1015.0 hPa 4.9 m/s 28.3 mm 18.3° 1015.0 hPa 4.9 m/s 28.3 mm
20:00 16.2° 1015.3 hPa 2.2 m/s 28.3 mm 16.2° 1015.3 hPa 2.2 m/s 28.3 mm
 06:03     21:23    Daglengte: 15:20 Dinsdag 03 Aug
02:00 11.3° 1015.6 hPa 2.1 m/s 28.3 mm 11.3° 1015.6 hPa 2.1 m/s 28.3 mm
08:00 13.7° 1015.1 hPa 3.2 m/s 28.3 mm 13.7° 1015.1 hPa 3.2 m/s 28.3 mm
14:00 21.2° 1014.4 hPa 5.7 m/s 28.4 mm 21.2° 1014.4 hPa 5.7 m/s 28.4 mm
20:00 18.7° 1013.7 hPa 3.4 m/s 28.6 mm 18.7° 1013.7 hPa 3.4 m/s 28.6 mm
 06:04     21:21    Daglengte: 15:17 Woensdag 04 Aug
02:00 15.8° 1012.6 hPa 4.9 m/s 28.6 mm 15.8° 1012.6 hPa 4.9 m/s 28.6 mm
08:00 16.4° 1010.8 hPa 5.6 m/s 28.6 mm 16.4° 1010.8 hPa 5.6 m/s 28.6 mm
14:00 21.6° 1008.9 hPa 8.4 m/s 28.8 mm 21.6° 1008.9 hPa 8.4 m/s 28.8 mm
20:00 18.1° 1008.2 hPa 5.3 m/s 31.3 mm 18.1° 1008.2 hPa 5.3 m/s 31.3 mm
 06:06     21:19    Daglengte: 15:13 Donderdag 05 Aug
02:00 14.5° 1008.4 hPa 5.1 m/s 31.3 mm 14.5° 1008.4 hPa 5.1 m/s 31.3 mm
08:00 14.6° 1007.6 hPa 5.0 m/s 31.3 mm 14.6° 1007.6 hPa 5.0 m/s 31.3 mm
14:00 19.5° 1010.1 hPa 3.4 m/s 1.2 mm
20:00 17.6° 1008.9 hPa 1.5 m/s 2.4 mm
 06:08     21:17    Daglengte: 15:09 Vrijdag 06 Aug
02:00 13.8° 1008.2 hPa 1.8 m/s 0.9 mm
08:00 14.4° 1007.5 hPa 2.4 m/s 0.5 mm
14:00 19.2° 1007.7 hPa 3.4 m/s 1.6 mm
20:00 17.3° 1007.1 hPa 1.9 m/s 2.1 mm
 06:09     21:15    Daglengte: 15:06 Zaterdag 07 Aug
02:00 13.3° 1007.2 hPa 2.3 m/s 0.6 mm
08:00 14.1° 1007.0 hPa 3.2 m/s 0.8 mm
14:00 18.7° 1007.5 hPa 4.8 m/s 1.9 mm
20:00 16.8° 1008.1 hPa 3.3 m/s 2.8 mm
 06:11     21:13    Daglengte: 15:02 Zondag 08 Aug
02:00 13.4° 1009.2 hPa 3.0 m/s 0.7 mm
08:00 14.0° 1009.2 hPa 3.7 m/s 0.3 mm
14:00 18.5° 1010.2 hPa 5.4 m/s 2.1 mm
20:00 16.8° 1011.0 hPa 3.3 m/s 1.7 mm
 06:12     21:12    Daglengte: 15:00 Maandag 09 Aug
02:00 13.4° 1012.0 hPa 3.2 m/s 0.5 mm
08:00 14.0° 1012.3 hPa 3.9 m/s 0.5 mm
14:00 18.8° 1013.4 hPa 5.0 m/s 1.7 mm
20:00 16.8° 1014.0 hPa 2.9 m/s 0.1 mm
 06:14     21:10    Daglengte: 14:56 Dinsdag 10 Aug
02:00 13.1° 1014.9 hPa 2.4 m/s 0.6 mm
08:00 13.9° 1014.8 hPa 3.0 m/s 0.6 mm
14:00 19.9° 1015.7 hPa 4.0 m/s 0.9 mm
FMI Hirlam - 7.5 km EWN WRFDA - 12 km DWD ICON - 7 km GFS - 25 km Basiskaart






























































Updatetijd (Europe/Amsterdam) Resolutie Lengte Stap
FMI Hirlam 14:00, 20:00, 02:00, 08:00 7.5 km 49h 1h
EWN WRFDA 10:30, 16:30, 22:30, 04:30 12 km 73h 1h
DWD ICON 11:45, 17:45, 23:45, 05:45 7 km 75h 1h
GFS 14:15, 20:15, 02:15, 08:15 25 km 237h 3h
30+ mm
25-30 mm
20-25 mm
15-20 mm
10-15 mm
6-10 mm
4-6 mm
2-4 mm
1-2 mm
0.5-1 mm
0.2-0.5 mm
0.1-0.2 mm
30+ mm
25-30 mm
20-25 mm
15-20 mm
10-15 mm
6-10 mm
4-6 mm
2-4 mm
1-2 mm
0.5-1 mm
0.2-0.5 mm
0.1-0.2 mm
Sneeuwval
Natte sneeuw
Hagel
Vorst
30+ mm
25-30 mm
20-25 mm
15-20 mm
10-15 mm
6-10 mm
4-6 mm
2-4 mm
1-2 mm
0.5-1 mm
0.2-0.5 mm
0.1-0.2 mm
Sneeuwval
Natte sneeuw
Hagel
Vorst
Onweer
50 mm
40 mm
30 mm
26 mm
22 mm
18 mm
14 mm
10 mm
9 mm
8 mm
7 mm
6 mm
5 mm
4.5 mm
4 mm
3.5 mm
3 mm
2.5 mm
2 mm
1.5 mm
1 mm
0.8 mm
0.6 mm
0.4 mm
0.2 mm
0.05 mm